Location: Suzhou
(31.3110°N, 120.6180°E)
Time: 13:33:13
(UTC+08:00)

FO-29 - Pass Details

Date: 27 April 2026
Orbit: 800 x 1320 km, 98.5° (Epoch: 15 May)

Event Time Altitude Azimuth Distance (km) Brightness Sun altitude
Rises 19:15:06 0° 22° (NNE) 3,983 12.7 -9.1°
Reaches altitude 10° 19:18:04 10° 31° (NNE) 2,939 11.9 -9.7°
Maximum altitude 19:24:03 36° 96° (E) 1,529 10.1 -10.9°
Drops below altitude 10° 19:29:22 10° 161° (SSE) 2,609 11.3 -11.9°
Sets 19:31:50 0° 170° (S) 3,483 12.1 -12.4°
